TimeCDT,TemperatureF,Dew PointF,Humidity,Sea Level PressureIn,VisibilityMPH,Wind Direction,Wind SpeedMPH,Gust SpeedMPH,PrecipitationIn,Events,Conditions,WindDirDegrees,DateUTC
12:53 AM,60.1,41.0,49,30.32,10.0,NE,8.1,-,N/A,,Mostly Cloudy,40,2013-03-26 05:53:00
1:53 AM,61.0,41.0,48,30.32,10.0,NE,8.1,-,N/A,,Overcast,50,2013-03-26 06:53:00
2:53 AM,61.0,37.0,41,30.31,10.0,NE,10.4,-,N/A,,Mostly Cloudy,50,2013-03-26 07:53:00
3:53 AM,61.0,36.0,39,30.31,10.0,NE,8.1,-,N/A,,Overcast,50,2013-03-26 08:53:00
4:53 AM,62.1,37.0,39,30.31,10.0,NE,10.4,-,N/A,,Overcast,50,2013-03-26 09:53:00
5:53 AM,62.1,39.9,44,30.33,10.0,NE,11.5,-,N/A,,Overcast,50,2013-03-26 10:53:00
6:53 AM,62.1,41.0,46,30.35,10.0,NE,13.8,-,N/A,,Overcast,40,2013-03-26 11:53:00
7:53 AM,62.1,41.0,46,30.36,10.0,NE,16.1,-,N/A,,Overcast,40,2013-03-26 12:53:00
8:53 AM,64.0,41.0,43,30.37,10.0,NE,19.6,26.5,N/A,,Clear,50,2013-03-26 13:53:00
9:53 AM,66.0,42.1,42,30.40,10.0,ENE,21.9,28.8,N/A,,Mostly Cloudy,60,2013-03-26 14:53:00
10:53 AM,66.0,42.1,42,30.42,10.0,ENE,16.1,26.5,N/A,,Overcast,60,2013-03-26 15:53:00
11:53 AM,66.9,41.0,39,30.43,10.0,ENE,19.6,23.0,N/A,,Overcast,60,2013-03-26 16:53:00
12:53 PM,69.1,41.0,36,30.42,10.0,ENE,13.8,23.0,N/A,,Overcast,70,2013-03-26 17:53:00
1:53 PM,69.1,42.1,38,30.39,10.0,ENE,17.3,25.3,N/A,,Scattered Clouds,70,2013-03-26 18:53:00
2:53 PM,69.1,41.0,36,30.38,10.0,East,15.0,-,N/A,,Clear,90,2013-03-26 19:53:00
3:53 PM,68.0,39.9,36,30.35,10.0,East,15.0,21.9,N/A,,Mostly Cloudy,80,2013-03-26 20:53:00
4:53 PM,66.9,39.9,37,30.34,10.0,ENE,13.8,19.6,N/A,,Overcast,70,2013-03-26 21:53:00
5:53 PM,64.9,39.9,40,30.33,10.0,ENE,15.0,23.0,N/A,,Mostly Cloudy,70,2013-03-26 22:53:00
6:53 PM,64.0,39.0,40,30.34,10.0,ENE,12.7,-,N/A,,Overcast,70,2013-03-26 23:53:00
7:53 PM,63.0,39.0,41,30.34,10.0,ENE,13.8,-,N/A,,Overcast,70,2013-03-27 00:53:00
8:53 PM,63.0,41.0,45,30.35,10.0,East,11.5,-,N/A,,Overcast,80,2013-03-27 01:53:00
9:53 PM,63.0,41.0,45,30.36,10.0,East,10.4,-,N/A,,Overcast,90,2013-03-27 02:53:00
10:53 PM,63.0,42.1,46,30.35,10.0,East,11.5,-,N/A,,Overcast,90,2013-03-27 03:53:00
11:53 PM,63.0,45.0,52,30.35,10.0,East,10.4,-,N/A,,Overcast,100,2013-03-27 04:53:00